Location: ????? ????
(37.9717°N, 23.4051°E)
Time: 14:06:53
(UTC+00:00)

Cosmos 1455 - Pass Details

Date: 18 April 2024
Orbit: 447 x 467 km, 82.5° (Epoch: 17 May)

Event Time Altitude Azimuth Distance (km) Brightness Sun altitude
Rises 17:22:30 0° 183° (S) 2,517 5.5 -4.1°
Reaches altitude 10° 17:24:35 10° 182° (S) 1,643 4.6 -4.4°
Maximum altitude 17:28:10 79° 96° (E) 491 2.0 -5.1°
Drops below altitude 10° 17:31:47 10° 10° (N) 1,652 4.9 -5.8°
Sets 17:33:53 0° 9° (N) 2,531 5.9 -6.2°
